Simultaneous Nadir Overpasses (SNOs) Predictions

Prediction of SNOs between AQUA and METOP-B Satellite Orbit:

Table of predicted SNOs for the next 14.0 days since TLE Epoch: 7/7/2017
Index Date (AQUA) Time (AQUA) Lat,Lon (AQUA) SZA (AQUA ) Date (METOP-B) Time (METOP-B) Lat,Lon (METOP-B) SZA (METOP-B ) Distance(km) Time Diff (sec)
1 07/08/2017 11:48:04 -73.76, 177.32 128.61 07/08/2017 11:47:01 -73.76, 177.34 128.59 0.75 63
2 07/08/2017 12:37:32 73.80, -15.13 51.44 07/08/2017 12:37:40 73.82, -15.19 51.46 2.96 8
3 07/08/2017 13:27:04 -74.12, 151.80 128.21 07/08/2017 13:28:15 -74.14, 152.91 128.25 33.73 71
4 07/11/2017 07:22:19 -73.75,-116.23 128.26 07/11/2017 07:21:22 -73.74,-116.29 128.25 2.35 57
5 07/11/2017 08:11:48 73.85, 51.19 51.86 07/11/2017 08:12:00 73.84, 51.28 51.85 2.75 12
6 07/11/2017 09:01:23 -74.32,-142.23 127.64 07/11/2017 09:02:31 -74.36,-140.12 127.68 63.61 68
7 07/14/2017 02:56:34 -73.75, -49.79 127.85 07/14/2017 02:55:42 -73.77, -49.82 127.82 2.37 52
8 07/14/2017 03:46:02 73.81, 117.73 52.22 07/14/2017 03:46:21 73.82, 117.62 52.23 3.56 19
9 07/14/2017 04:35:43 -74.57, -76.40 126.95 07/14/2017 04:36:48 -74.54, -73.25 127.12 93.38 65
10 07/16/2017 22:30:48 -73.76, 16.64 127.39 07/16/2017 22:30:02 -73.75, 16.54 127.39 3.38 46
11 07/16/2017 23:20:16 73.82,-175.86 52.68 07/16/2017 23:20:40 73.84,-175.92 52.71 3.00 24
12 07/19/2017 18:05:03 -73.77, 83.05 126.88 07/19/2017 18:04:22 -73.77, 83.00 126.86 1.79 41
13 07/19/2017 18:54:31 73.84,-109.45 53.20 07/19/2017 18:55:00 73.86,-109.46 53.23 2.72 29




NCC Satellite Simultaneous Nadir Overpasses (SNOs) Prediction Service
